Location: Unspecified
(0.0000°N, 0.0000°E)
Time: 18:25:06
(UTC+00:00)

AISAT - Visible Passes

Search period start: 30 May 2024 00:00
Search period end: 09 June 2024 00:00
Orbit: 595 x 609 km, 98.3° (Epoch: 29 May)

Date Brightness Start Highest point End Pass type
(mag) Time Alt. Az. Time Alt. Az. Time Alt. Az.
30 May ? 19:18:42 10° NE 19:20:20 21° NE 19:20:20 21° NE visible
31 May ? 19:30:01 10° NNE 19:32:05 27° NE 19:32:05 27° NE visible
01 Jun ? 19:41:28 10° NNE 19:43:49 33° NNE 19:43:49 33° NNE visible
02 Jun ? 19:53:02 10° N 19:55:34 36° N 19:55:34 36° N visible
03 Jun ? 20:04:43 10° N 20:07:17 33° NNW 20:07:17 33° NNW visible
04 Jun ? 20:16:33 10° NNW 20:18:59 26° NW 20:18:59 26° NW visible
05 Jun ? 20:28:32 10° NNW 20:30:41 20° NW 20:30:41 20° NW visible
06 Jun ? 19:04:50 10° NE 19:05:36 13° ENE 19:05:36 13° ENE visible
06 Jun ? 20:40:49 10° NW 20:42:22 14° WNW 20:42:22 14° WNW visible
07 Jun ? 19:15:47 10° NE 19:17:16 19° ENE 19:17:16 19° ENE visible
08 Jun ? 19:26:56 10° NNE 19:28:56 25° NE 19:28:56 25° NE visible
